Regional Weather Roundup
Issued by NWS Upton, NY

Current Version | Previous Version | Graphics & Text | Print | Product List | Glossary Off
Versions: 1 2 3 4 5 6 7 8 9 10 11 12 13 14 15 16 17 18 19 20 21 22 23 24 25 26 27 28 29 30 31 32 33 34 35 36 37 38 39 40 41 42 43 44 45 46 47 48 49 50

000
ASUS41 KOKX 230104
RWROKX

REGIONAL WEATHER ROUNDUP
NATIONAL WEATHER SERVICE NEW YORK NY
900 PM EDT FRI JUL 22 2016

NOTE: "FAIR" INDICATES FEW OR NO CLOUDS BELOW 12,000 FEET WITH NO
SIGNIFICANT WEATHER AND/OR OBSTRUCTIONS TO VISIBILITY.

NYZ071-072-176-178-NJZ106-104-230200-
NEW YORK CITY METRO AREA

CITY           SKY/WX    TMP DP  RH WIND       PRES   REMARKS
Central Park   CLEAR     89  67  47 W9G18     29.82R HX  92
LaGuardia APRT PTCLDY    91  71  51 SW14G22   29.78R HX  97
Kennedy INTL   PTCLDY    84  69  60 SW16      29.81R
Newark/Liberty PTCLDY    89  71  55 SW18      29.79S HX  95
BRNX BOT. GARD   N/A     90  66  45 W3        29.81R HX  92
Wall St Helipt PTCLDY    86  73  66 SW12      29.80S HX  93
Teterboro      CLEAR     90  65  43 SW15G21   29.77S HX  92
$$

NYZ177-179-078>081-230200-
LONG ISLAND NEW YORK

CITY           SKY/WX    TMP DP  RH WIND       PRES   REMARKS
FARMINGDALE    CLEAR     81  70  69 SW12      29.81R
ISLIP          PTCLDY    80  72  76 SW14      29.80S
SHIRLEY        CLEAR     79  72  79 SW12      29.81S
RIVERHEAD      NOT AVBL
WESTHAMPTON    CLEAR     75  70  84 SW10      29.83R
SOUTHAMPTON      N/A     73  72  94 SW9       29.77S
BRIDGEHAMPTON    N/A     75  72  88 S5        29.80S
EAST HAMPTON   FAIR      75  71  88 SW12      29.81R
MONTAUK POINT    N/A     76  72  87 SW13G21   29.82R
$$

NYZ052-065-067-230200-
HUDSON VALLEY

CITY           SKY/WX    TMP DP  RH WIND       PRES   REMARKS
WHITE PLAINS   PTCLDY    88  66  48 VRB3      29.79S HX  90
NEWBURGH       PTCLDY    86  68  54 W8        29.80R
MONTGOMERY     CLOUDY    84  69  60 W6        29.78R
POUGHKEEPSIE   MOCLDY    87  71  58 CALM      29.75S HX  93
ALBANY         PTCLDY    83  67  58 W9        29.77R
$$

NJZ001-105-106-008-010-013-015-019>022-104-230200-
NEW JERSEY

CITY           SKY/WX    TMP DP  RH WIND       PRES   REMARKS
NEWARK/LIBERTY PTCLDY    89  71  55 SW18      29.79S HX  95
TETERBORO      CLEAR     90  65  43 SW15G21   29.77S HX  92
CALDWELL       CLEAR     88  67  49 VRB5      29.78F HX  91
MORRISTOWN     PTCLDY    88  68  51 W9        29.80S HX  91
SOMERVILLE     CLEAR     82  68  62 S3        29.80R
SUSSEX         PTCLDY    84  67  56 SW3       29.81S
ANDOVER          N/A     82  67  60 CALM      29.82S
TRENTON        CLEAR     86  70  58 VRB6      29.83R HX  90
MILLVILLE      CLEAR     84  68  58 SW5       29.88S
ATLANTIC CITY  CLEAR     83  68  60 S6        29.87S
WRIGHTSTOWN    CLEAR     84  71  66 SW14      29.82S
TOMS RIVER     CLEAR     83  67  58 SW8       29.86R
BELMAR         CLEAR     85  68  56 SW10      29.85R
$$

PAZ047>061-062-071-230200-
EASTERN PENNSYLVANIA

CITY           SKY/WX    TMP DP  RH WIND       PRES   REMARKS
PHILADELPHIA   PTCLDY    87  71  58 SW12      29.86R HX  93
ALLENTOWN      CLEAR     85  66  53 SW12      29.83S
SCRANTON       PTCLDY    83  66  56 W7        29.85R
$$

CTZ002-004>006-009-010-012-RIZ004-006-007-MAZ004-011-015-230200-
SOUTHERN NEW ENGLAND
 IN CT

CITY           SKY/WX    TMP DP  RH WIND       PRES   REMARKS
BRADLEY INTL   CLOUDY    78  71  79 VRB7      29.74R THUNDER
HARTFORD       PTCLDY    86  71  60 S9        29.74S HX  91
DANBURY        PTCLDY    85  68  56 SW6       29.80R
WTRBRY/OXFORD  MOCLDY    82  68  61 S6        29.81F
BRIDGEPORT     CLEAR     82  71  69 S14       29.77S
MERIDEN        PTCLDY    84  70  62 S7        29.77S
NEW HAVEN      PTCLDY    79  71  76 SW12      29.78S
CHESTER        FAIR      79  72  78 SW8       29.80S
GROTON         CLEAR     79  71  76 SW12G20   29.78S
WILLIMANTIC    NOT AVBL

 IN RI

CITY           SKY/WX    TMP DP  RH WIND       PRES   REMARKS
PROVIDENCE     TSTM      81  69  67 SW15      29.78R
BLOCK ISLAND   CLEAR     73  71  93 SW18G26   29.81S
WESTERLY       CLEAR     78  69  73 SW16G26   29.79S

 IN MA

CITY           SKY/WX    TMP DP  RH WIND       PRES   REMARKS
BOSTON         MOCLDY    85  69  58 SW24G39   29.73R THUNDER
WORCESTER      PTCLDY    76  72  87 SW8       29.81R
WESTFIELD      PTCLDY    82  67  60 W6        29.75R
PROVINCETOWN   PTCLDY    72  70  93 SW16      29.77R
NANTUCKET      CLEAR     72  70  93 SW17      29.83R
$$

ANZ330-335-338-340-345-350-353-355-230200-
COASTAL MARINE OBSERVATIONS


STATION/POSITION TIME  SKY/WX   TEMP    WIND        PRES    VSBY  WAVE
                                AIR SEA DIR/SP/G                  HT/PER
                 (UTC)          (F)     (DEG/KT/KT) (MB)    (MI)  (FT/S)
NY HARB ENTRANCE 2350            77 72  210/ 17/ 19 1008.8          5/ 6
20S FIRE ISLAND  2350            77 74  210/ 19/ 23 1009.1          6/ 6
GREAT SOUTH BAY  0030            78 80  230/ 19/ 23   N/A
23 SSW MONTAUK P 2350            76 73  220/ 19/ 23 1009.6          6/ 6
15 E BARNEGAT LI 0022               75                N/A           5/ 5
HUDSON CANYON    2350            78 76              1011.4          4/ 6
KINGS POINT      0000            87                   N/A
EXECUTION ROCKS  0000            81     210/ 10/ 14   N/A
CENTRAL LI SOUND 0000            79 73  200/ 17/ 21   N/A           2/ 4
EASTERN LI SOUND 0000            75 68  220/ 17/ 23   N/A
ROBBINS REEF     0000            89                   N/A
$$


>>>>>>>>>>>>>>>>>>>>>>>>>>>> KEY <<<<<<<<<<<<<<<<<<<<<<<<<<<
>                                                          <
>     SKY/WX - SKY CONDITION/PRESENT WEATHER               <
>     TMP    - TEMPERATURE IN FAHRENHEIT                   <
>     DP     - DEWPOINT IN FAHRENHEIT                      <
>     RH     - RELATIVE HUMIDITY IN PERCENT                <
>     WIND   - DIRECTION AND SPEED IN MPH                  <
>     PRES   - MEAN SEA LEVEL PRESSURE IN INCHES OF HG     <
>     WCI    - WIND CHILL INDEX                            <
>     VSB    - VISIBILITY IN MILES                         <
>     HX     - HEAT INDEX                                  <
>     TC     - TEMPERATURE IN CELSIUS                      <
>     VRB    - VARIABLE WIND DIRECTION                     <
>                                                          <
>>>>>>>>>>>>>>>>>>>>>>>>>>>> KEY <<<<<<<<<<<<<<<<<<<<<<<<<<<





USA.gov is the U.S. government's official web portal to all federal, state and local government web resources and services.